This is the latest recevied weather packets stored in our database for station/object SP1BMW-13. If no packets are shown the sender has not sent any weather packets the latest 10 day(s).
| Time | Temp. | Humidity | Pressure | Rain* | Wind** | Luminosity | Snow |
|---|---|---|---|---|---|---|---|
| 1787386382 | 18.33° C | 76% | 1008.2 hPa | 0 mm | 1.79 m/s, 290° | 445 W/m² | - |
| 1787386322 | 17.78° C | 76% | 1008.2 hPa | 0 mm | 1.34 m/s, 309° | 114 W/m² | - |
| 1787386261 | 17.78° C | 75% | 1008.3 hPa | 0 mm | 1.79 m/s, 246° | 470 W/m² | - |
| 1787386201 | 17.78° C | 76% | 1008.1 hPa | 0 mm | 1.34 m/s, 229° | 489 W/m² | - |
| 1787386141 | 17.78° C | 76% | 1008.2 hPa | 0 mm | 0.89 m/s, 257° | 393 W/m² | - |
| 1787386082 | 17.78° C | 75% | 1008.2 hPa | 0 mm | 0.89 m/s, 233° | 387 W/m² | - |
| 1787386022 | 17.78° C | 75% | 1008.2 hPa | 0 mm | 0.89 m/s, 352° | 139 W/m² | - |
| 1787385961 | 17.78° C | 75% | 1008.2 hPa | 0 mm | 2.24 m/s, 331° | 143 W/m² | - |
| 1787385901 | 17.78° C | 75% | 1008.4 hPa | 0 mm | 1.79 m/s, 233° | 482 W/m² | - |
| 1787385841 | 18.33° C | 75% | 1008.2 hPa | 0 mm | 0.89 m/s, 231° | 200 W/m² | - |
| 1787385782 | 18.33° C | 74% | 1008.3 hPa | 0 mm | 1.79 m/s, 306° | 200 W/m² | - |
| 1787385722 | 18.33° C | 74% | 1008.1 hPa | 0 mm | 2.68 m/s, 294° | 170 W/m² | - |
| 1787385662 | 18.33° C | 75% | 1008 hPa | 0 mm | 3.13 m/s, 251° | 167 W/m² | - |
| 1787385601 | 17.78° C | 76% | 1008.1 hPa | 0 mm | 2.68 m/s, 338° | 207 W/m² | - |
| 1787385542 | 17.78° C | 78% | 1008.1 hPa | 0 mm | 1.79 m/s, 310° | 537 W/m² | - |
| 1787385482 | 17.78° C | 77% | 1008.1 hPa | 0 mm | 2.68 m/s, 183° | 523 W/m² | - |
| 1787385422 | 17.78° C | 78% | 1008.1 hPa | 0 mm | 1.34 m/s, 262° | 489 W/m² | - |
| 1787385363 | 17.78° C | 80% | 1008 hPa | 0 mm | 3.13 m/s, 245° | 222 W/m² | - |
| 1787385302 | 17.78° C | 80% | 1008 hPa | 0 mm | 2.24 m/s, 257° | 167 W/m² | - |
| 1787385242 | 17.78° C | 79% | 1007.9 hPa | 0 mm | 1.34 m/s, 284° | 236 W/m² | - |
| 1787385183 | 17.78° C | 80% | 1007.8 hPa | 0 mm | 1.79 m/s, 254° | 216 W/m² | - |
| 1787385123 | 17.78° C | 80% | 1007.9 hPa | 0 mm | 0.89 m/s, 265° | 181 W/m² | - |
| 1787385062 | 17.78° C | 80% | 1008 hPa | 0 mm | 1.34 m/s, 280° | 392 W/m² | - |
| 1787385002 | 17.78° C | 79% | 1007.9 hPa | 0 mm | 1.34 m/s, 265° | 383 W/m² | - |
| 1787384942 | 17.78° C | 79% | 1007.9 hPa | 0 mm | 0.45 m/s, 275° | 107 W/m² | - |
* Rain latest hour (hover to see other rain measurements)
** Current wind speed in m/s (hover to see current wind gust speed)